CZ-4C DEB, 44614

Orbit data source: Space-Track

CZ-4C DEB, 44614 is space debris in SSO originally from a launch on Tue, 14 Nov 2017 UTC launched from the Taiyaun Space Center, China (TSC). Debris objects in space refer to the collection of defunct objects orbiting the Earth. Examples of debris include non-operational satellites, rocket bodies, and fragments generated from explosions, collisions, or faulty payload assembly.

Loading next visibility...
Identifier
44614, 2017-072E
Orbit
SSO
Country
Flag of CNCN / PRC
Related business
Manufacturer
Unknown
Mission
Spacecraft
Bus & Motor
Unknown
Mass
Unknown
Launch date (UTC)
2017-11-14 (8 years ago)
Launch vehicle
Unknown
Launch site
Taiyaun Space Center, China (TSC)
Object type
Payload
Rocket body
Debris
Shape & HBR
Unknown
Radar Cross Section
Small (<0.1 m²)

Expand to show TLE details & history
Last TLE update: 12 hours ago

TLE from 12 hours ago
0 CZ-4C DEB
1 44614U 17072E   25260.24216938  .00000216  00000-0  19879-3 0  9992
2 44614  98.7314   5.3263 0229153  47.5320 314.4957 13.80615616393774
Epoch: 2025-09-17T05:48Z
TLE epoch observation values (Epoch: 2025-09-17T05:48:43.434Z)
Latitude
0.00002°
Longitude
-78.27561°
Altitude
848.671 km
Speed
7.487 km/s
True Right ascension
00h 21m 18s
True Declination
0° 00' 00"
Sunlit
Object was in full shadow at epoch
Visualization orbit readout
Latitude
Unknown
Longitude
Unknown
Altitude
Unknown
Speed
Unknown
Apparent Right ascension
Unknown
Apparent Declination
Unknown
Sunlit
N/A
Visualization observer readout
Local Sidereal Time
10:08:18
Azimuth
Unknown
Elevation
Unknown
Doppler factor
Unknown
Orbital elements
Apogee altitude
1,127.045 km
Perigee altitude
790.784 km
Semi-major axis
7,337.051 km
Eccentricity
0.02292
Inclination
98.7314°
RAAN
5.3263°
Arg. of periapsis
47.532°
True anomaly
312.58465°
Mean anomaly
314.4957°
Eccentric anomaly
313.54401°
Mean motion
3.45351 °/min
Orbital period
104.24 mins
BSTAR
0.00019879
Loading maneuver chart data...
Computing Atmospheric mass density...
Loading historical data...
Loading historical data...
Loading historical data...
Loading historical data...
Loading historical data...
Loading historical data...
Loading historical data...
Other satellites on launch #72 in the year 2017 (2017-11-14 UTC)

Documentation

Showing up to 5 results
|